Aérodrome :
LOGIN :

S'inscrire | Disclaimer

   EN    FR    IT 

 










Légende :    VFR   VFR Marginal   IFR   IFR Intensif   IFR Très Intensif
Visi : 
Plafond : 
>= 8 km
>= 3000ft
5 à 8 km
1000 à 3000 ft
1500m à 5 km
500 à 1000 ft
800 à 1500m
200 à 500 ft
< 800m
< 200 ft
Symboles :   Orages  Brouillard  Fortes neiges  Fortes précipitations  Vent > 20 kt
SIGMETs :   Divers  Orages  Givrage  Turbulence  Onde Orograph.  Cendres Volcan.







- Altitude de l'aérodrome : 203 ft
- Code IATA : XMJ
- Voir les cartes d'approche


LFBM - Mont-De-Marsan

DERNIER METAR :
  • 171500Z AUTO VRB04KT CAVOK 30/15 Q1019 NOSIG

METARs EXPIRÉS :
  • 171430Z AUTO 31005KT 220V360 CAVOK 29/15 Q1020 NOSIG
  • 171400Z AUTO VRB03KT CAVOK 29/13 Q1020 NOSIG
  • 171330Z AUTO 33004KT 250V020 CAVOK 28/15 Q1020 NOSIG
  • 171300Z AUTO 31005KT 260V350 CAVOK 28/15 Q1020 NOSIG
  • 171230Z AUTO VRB03KT CAVOK 28/16 Q1021 NOSIG

TAF TAF LFBM
Valide du 17 à 15h jusqu'au 18 à 15h UTC


171400Z 1715/1815 VRB03KT CAVOK
PROB30
TEMPO 1806/1808 BKN007
Pas de NOTAMs connus pour ce terrain.



MET'MAP, la Météo Aéronautique d'un coup d'oeil ! - Copyright ORBIFLY Décembre 2007 - Disclaimer

ORBIFLY MET'MAP TEAM :

Programmation & Développement : Alexandra Zaïnal
Conception & Développement : Baudouin d'Aumeries
Co-Programmation & Développement : Marc-Olivier Méhu
Soutien technique & logistique : Manuel Goepfert

Contact : metmap@orbifly.com




SOURCES & CREDITS :

   NOAA